This is the latest recevied weather packets stored in our database for station/object N9XRG. If no packets are shown the sender has not sent any weather packets the latest 10 day(s).
| Time | Temp. | Humidity | Pressure | Rain* | Wind** | Luminosity | Snow |
|---|---|---|---|---|---|---|---|
| 1778178491 | 15.56° C | 41% | 1013.6 hPa | 0 mm | - | 1019 W/m² | - |
| 1778178187 | 15.56° C | 41% | 1013.8 hPa | 0 mm | - | 561 W/m² | - |
| 1778177883 | 16.11° C | 40% | 1013.8 hPa | 0 mm | - | 217 W/m² | - |
| 1778177579 | 16.11° C | 41% | 1013.7 hPa | 0 mm | - | 961 W/m² | - |
| 1778177276 | 15.56° C | 42% | 1013.7 hPa | 0 mm | - | 957 W/m² | - |
| 1778176973 | 15.56° C | 41% | 1014 hPa | 0 mm | - | 958 W/m² | - |
| 1778176668 | 15.56° C | 41% | 1013.7 hPa | 0 mm | - | 980 W/m² | - |
| 1778176366 | 15° C | 41% | 1013.8 hPa | 0 mm | - | 993 W/m² | - |
| 1778176063 | 15.56° C | 42% | 1014 hPa | 0 mm | - | 991 W/m² | - |
| 1778175761 | 15° C | 43% | 1014 hPa | 0 mm | - | 976 W/m² | - |
| 1778175458 | 15° C | 43% | 1014.1 hPa | 0 mm | - | 965 W/m² | - |
| 1778175155 | 14.44° C | 45% | 1014 hPa | 0 mm | - | 958 W/m² | - |
| 1778174851 | 15° C | 39% | 1014.2 hPa | 0 mm | - | 963 W/m² | - |
| 1778174549 | 15° C | 42% | 1014.3 hPa | 0 mm | - | 953 W/m² | - |
| 1778174248 | 15° C | 41% | 1014.5 hPa | 0 mm | - | 956 W/m² | - |
| 1778173946 | 14.44° C | 40% | 1014.4 hPa | 0 mm | - | 957 W/m² | - |
| 1778173643 | 15° C | 39% | 1014.8 hPa | 0 mm | - | 949 W/m² | - |
| 1778173340 | 15° C | 40% | 1014.7 hPa | 0 mm | - | 945 W/m² | - |
| 1778173035 | 15° C | 44% | 1014.6 hPa | 0 mm | - | 937 W/m² | - |
| 1778172732 | 15° C | 43% | 1014.8 hPa | 0 mm | - | 950 W/m² | - |
| 1778172428 | 14.44° C | 43% | 1014.7 hPa | 0 mm | - | 917 W/m² | - |
| 1778172126 | 14.44° C | 42% | 1014.7 hPa | 0 mm | - | 911 W/m² | - |
| 1778171822 | 14.44° C | 42% | 1014.8 hPa | 0 mm | - | 913 W/m² | - |
| 1778171520 | 14.44° C | 42% | 1014.8 hPa | 0 mm | - | 905 W/m² | - |
| 1778171216 | 14.44° C | 40% | 1014.9 hPa | 0 mm | - | 903 W/m² | - |
* Rain latest hour (hover to see other rain measurements)
** Current wind speed in m/s (hover to see current wind gust speed)